Location: Unspecified
(0.0000°N, 0.0000°E)
Time: 09:45:23
(UTC+00:00)

Cosmos 1574 - Visible Passes

Search period start: 05 June 2023 00:00
Search period end: 15 June 2023 00:00
Orbit: 965 x 1003 km, 83.0° (Epoch: 04 June)

Date Brightness Start Highest point End Pass type
(mag) Time Alt. Az. Time Alt. Az. Time Alt. Az.
05 Jun 6.1 18:25:24 10° S 18:31:34 60° E 18:37:46 10° NNE visible
06 Jun 6.6 18:53:11 10° SSW 18:59:21 60° W 19:05:34 10° N visible
07 Jun 8.2 19:22:05 10° SW 19:27:09 26° W 19:32:15 10° NNW visible
09 Jun 8.5 05:26:08 10° NE 05:31:04 25° E 05:35:59 10° SE visible
09 Jun 6.7 18:31:18 10° SSW 18:37:30 62° W 18:43:44 10° N visible
10 Jun 8.2 19:00:08 10° SW 19:05:17 27° W 19:10:28 10° NNW visible
11 Jun 9.2 19:32:09 10° W 19:33:06 10° W 19:34:03 10° WNW visible
12 Jun 8.5 05:04:22 10° NE 05:09:12 24° E 05:14:01 10° SE visible
13 Jun 6.9 05:30:55 10° N 05:37:00 56° E 05:43:03 10° SSE visible
13 Jun 8.3 18:38:12 10° SW 18:43:26 28° W 18:48:41 10° NNW visible
14 Jun 9.2 19:09:45 10° W 19:11:14 11° W 19:12:44 10° WNW visible
